SCP
0 0 0 0 0 0 0 0 0 0 0 0 0 0 0 0 0 0 0 0 0 0 0 0 0 0 0 0 0 0 0 0 0 0 1 1 1 1
0 0 0 0 0 0 0 0 0 0 0 0 0 0 0 0 0 0 0 0 0 0 0 0 0 0 0 0 0 0 0 0 0 0 1 1 1 1
0 0 0 0 0 0 0 0 0 0 0 0 0 0 0 0 0 0 0 0 0 0 0 0 0 0 0 0 0 0 0 0 0 0 0 1 1 1
1 1 1 1 1 1 1 1 1 0 0 0 0 0 0 0 0 0 0 0 0 0 0 0 0 0 0 0 0 0 0 0 0 0 0 0 1 1
1 1 1 1 1 1 1 1 1 1 1 0 0 0 0 0 0 0 0 0 0 0 0 0 0 0 0 0 0 0 0 0 0 0 0 0 0 0
1 1 1 1 1 1 1 1 1 1 1 1 0 0 0 0 0 0 0 0 0 0 0 0 0 0 0 0 0 0 0 0 0 0 0 0 0 0
1 1 1 1 1 1 1 1 1 1 1 1 0 0 0 0 0 0 0 0 0 0 0 0 0 0 0 0 0 0 0 0 0 0 0 0 0 0
0 0 0 0 0 0 0 0 0 0 0 0 0 0 0 0 0 0 0 0 0 0 0 0 0 0 0 0 0 0 0 0 0 0 0 0 0 0
0 0 0 0 0 0 0 0 0 0 0 0 0 0 0 0 0 0 0 0 0 0 0 0 0 0 0 0 0 0 0 0 0 0 0 0 0 0
0 0 0 0 0 0 0 0 0 0 0 0 0 0 0 0 0 0 0 0 0 0 0 0 0 0 0 0 0 0 0 0 0 0 0 0 0 0
0 0 0 0 0 0 0 0 0 0 0 0 0 0 0 0 0 0 0 0 0 0 0 0 0 0 0 0 0 0 0 0 0 0 0 0 0 0
0 0 0 0 0 0 0 0 0 0 0 0 0 0 0 0 0 0 0 0 0 0 0 0 0 0 0 0 0 0 0 0 0 0 0 0 0 0
0 0 0 0 0 0 0 0 0 0 0 0 0 0 0 0 0 0 0 0 0 0 0 0 0 0 0 0 0 0 0 0 0 0 0 0 0 0
0 0 0 0 0 0 0 0 0 0 0 0 0 0 0 0 0 0 0 0 1 0 0 0 0 0 0 0 0 0 0 0 0 0 0 0 0 0
0 0 0 0 0 0 0 0 0 0 0 0 0 0 0 0 0 0 0 0 0 0 0 0 0 0 0 0 0 0 0 0 0 0 0 0 0 0
0 0 0 0 0 0 0 0 0 0 0 0 0 0 0 0 0 0 0 0 0 0 0 0 0 0 0 0 0 0 0 0 0 0 0 0 0 0
0 0 0 0 0 0 0 0 0 0 0 0 0 0 0 0 0 0 0 0 0 0 0 0 0 0 0 0 0 0 0 0 0 0 0 0 0 0
0 0 0 0 0 0 0 0 0 0 0 0 0 0 0 0 0 0 0 0 0 0 0 0 0 0 0 0 0 0 0 0 0 0 0 0 0 0
0 0 0 0 0 0 0 0 0 0 0 0 0 0 0 0 0 0 0 0 0 0 0 0 0 0 0 0 0 0 0 0 0 0 0 0 0 0
0 0 0 0 0 0 0 0 0 0 0 0 0 0 0 0 0 0 0 0 0 0 0 0 0 0 0 0 0 0 0 0 0 0 0 0 0 0
0 0 0 0 0 0 0 0 0 0 0 0 0 0 0 0 0 0 0 0 0 0 0 0 0 0 0 0 0 0 0 0 0 0 0 0 0 0
0 0 0 0 0 0 0 0 0 0 0 0 0 0 0 0 0 0 0 0 0 0 0 0 0 0 0 0 0 0 0 0 0 0 0 0 0 0
0 0 0 0 0 0 0 0 0 0 0 0 0 0 0 0 0 0 0 0 0 0 0 0 0 0 0 0 0 0 0 0 0 0 0 0 0 0
Wind_Speed
2 2 1 1 1 1 2 3 4 1 2 3 2 2 2 2 4 3 3 7 9 9 10 10 10 10 10 10 10 9 9 10 10 11 12 12 14 16
2 3 2 1 1 1 1 2 3 4 2 3 3 3 3 3 4 3 5 8 9 10 11 11 12 12 12 12 11 11 10 10 10 10 10 10 11 12
3 3 3 2 2 1 1 1 2 3 3 4 3 2 2 4 4 4 4 5 5 10 12 12 12 13 13 13 12 12 12 11 11 11 11 11 11 12
4 4 4 3 3 2 2 2 2 3 3 4 3 3 4 4 4 5 5 5 4 9 11 11 12 12 13 13 13 13 13 13 12 12 12 12 13 13
6 6 6 5 5 4 4 3 3 3 3 3 4 3 3 3 3 4 4 3 5 6 8 8 9 10 11 12 13 14 14 13 14 14 14 13 13 14
6 6 6 6 7 6 5 5 4 4 3 3 4 4 4 4 2 3 3 3 4 4 5 5 6 7 9 10 12 12 13 14 15 15 15 15 14 14
6 6 7 8 10 8 6 6 5 4 4 4 4 3 4 3 4 3 3 4 4 3 3 4 3 4 5 7 10 12 13 14 15 15 15 16 16 16
6 6 6 7 9 11 12 11 9 7 6 5 5 6 7 6 4 4 3 3 4 3 2 4 3 5 5 5 9 13 14 14 15 15 16 16 16 16
6 5 5 5 6 5 8 10 11 13 13 8 8 9 8 7 5 5 5 6 6 5 2 5 4 6 6 7 13 14 15 15 15 15 15 16 16 16
5 5 5 6 5 5 5 6 7 8 9 8 9 10 9 8 7 7 7 6 6 5 4 5 5 6 7 6 12 15 15 15 15 15 15 15 15 16
5 5 6 6 8 8 5 6 7 8 10 12 12 13 14 14 9 4 4 4 6 6 5 5 5 5 5 6 9 13 14 14 14 14 14 14 15 13
4 4 6 7 7 6 5 5 8 9 7 7 8 11 11 12 13 10 8 7 6 6 5 6 5 4 4 5 5 6 7 10 13 14 14 14 13 6
4 4 4 6 7 7 6 6 10 9 6 7 7 7 7 7 8 8 9 9 9 9 6 5 5 4 5 5 4 4 5 5 5 7 10 13 13 9
4 3 4 6 8 9 8 10 13 10 5 5 6 7 7 8 8 8 9 10 11 12 9 7 6 6 5 5 5 4 4 5 5 6 6 8 10 13
4 6 7 9 9 8 10 12 9 5 5 5 7 8 8 8 7 6 7 8 9 11 11 9 9 7 7 7 7 6 5 5 5 6 6 6 6 5
4 5 7 8 7 8 8 7 5 5 5 7 7 8 6 6 6 6 7 6 6 7 8 10 10 10 9 10 8 8 6 5 5 6 6 6 5 6
2 2 2 3 3 4 4 5 5 4 5 6 6 7 7 6 7 5 5 5 5 7 7 6 7 8 10 8 8 9 8 8 8 7 5 7 7 7
2 2 3 4 4 5 5 5 5 5 5 6 6 6 6 7 7 5 5 5 7 7 7 6 4 3 4 6 11 10 8 8 8 7 6 7 9 7
2 3 4 5 5 5 5 5 6 6 5 5 6 6 6 6 6 6 6 6 7 7 7 6 5 5 7 9 7 11 9 8 6 6 6 7 9 8
3 4 5 5 5 5 5 5 6 6 5 6 6 6 6 6 7 7 6 7 7 7 7 5 5 7 9 9 7 6 11 9 7 7 7 6 7 9
4 5 5 5 5 5 5 5 6 6 6 6 6 7 6 6 7 7 6 9 8 7 8 8 8 10 7 4 5 6 6 11 12 8 6 5 5 5
5 5 5 5 5 5 5 5 5 6 6 6 6 6 6 6 7 7 7 7 7 7 8 8 7 5 4 6 9 9 8 6 9 14 14 11 6 6
5 5 5 5 5 4 5 5 6 6 6 6 6 6 6 6 6 6 7 7 7 8 8 7 5 5 6 7 8 8 9 8 5 5 7 12 17 17
Wind_Direction
168 163 164 190 153 153 149 149 146 159 295 293 305 300 284 252 251 236 238 245 246 248 253 256 257 259 261 262 262 263 263 260 257 255 251 248 245 241
181 175 189 202 175 152 147 149 151 162 222 264 262 275 283 281 257 246 249 257 257 257 258 258 258 257 257 257 257 259 260 259 256 253 250 248 248 246
196 190 210 201 193 204 178 163 169 160 212 271 268 275 282 282 286 271 261 257 262 261 261 262 260 259 257 256 255 256 256 256 255 252 249 247 246 247
208 202 219 213 210 215 207 216 215 195 194 252 279 282 273 270 269 274 270 261 254 263 264 265 266 265 261 256 254 253 253 253 253 252 250 247 245 246
207 206 214 205 217 220 217 222 228 221 197 217 257 264 273 277 289 287 280 279 275 271 271 270 272 272 269 264 258 255 254 254 253 251 250 249 247 246
213 213 215 208 213 216 220 223 224 228 225 228 249 262 266 276 270 275 291 283 280 285 285 281 281 285 280 274 267 260 255 253 251 249 249 248 247 246
223 222 223 220 218 215 217 216 215 222 228 233 248 258 262 265 256 248 257 275 278 260 274 278 282 284 284 280 274 265 259 255 251 248 246 245 244 244
227 234 238 236 234 232 233 226 212 214 221 225 236 239 251 244 243 239 243 261 280 262 232 268 259 269 268 261 263 265 263 259 255 251 248 245 242 241
224 230 244 244 238 239 246 246 238 234 225 222 233 241 245 238 231 242 235 232 241 243 219 267 260 264 265 267 264 263 263 262 259 255 251 247 244 242
223 222 230 247 248 239 245 253 252 250 242 235 236 244 243 240 227 232 239 248 254 250 206 249 260 257 266 262 265 263 263 263 261 257 254 250 247 244
239 237 233 242 252 249 243 253 265 268 261 247 242 247 250 249 241 238 241 242 261 258 208 218 251 260 263 260 262 261 260 262 261 259 256 253 250 246
253 251 247 252 264 262 239 243 259 267 272 278 267 263 258 257 247 231 230 237 248 259 226 208 239 238 271 262 255 256 258 260 261 260 257 255 252 238
245 250 253 262 269 268 252 240 249 259 267 263 266 266 262 256 249 236 227 228 235 244 229 198 224 218 224 260 268 252 244 252 256 256 254 252 247 220
242 249 255 267 272 272 264 256 261 266 260 260 263 264 262 260 256 246 237 234 235 242 242 211 217 222 230 247 258 260 250 242 238 248 249 252 249 235
242 249 259 267 276 273 266 270 273 260 252 257 260 262 259 259 259 258 255 248 247 247 247 229 226 233 225 238 248 247 257 255 235 239 245 239 236 227
264 274 280 281 277 272 277 277 261 250 250 256 263 267 267 264 259 255 260 258 258 263 251 237 231 229 237 240 242 249 241 242 243 234 237 244 239 227
263 289 293 298 297 293 289 282 277 275 267 262 266 271 271 267 264 257 252 252 251 262 270 260 239 231 231 233 242 246 247 246 246 242 233 248 249 236
194 254 270 274 275 279 282 283 278 272 269 267 266 264 265 264 265 262 251 249 255 259 260 260 257 262 264 251 229 241 245 246 245 234 223 238 256 247
212 249 257 261 264 267 269 272 276 276 275 273 271 269 267 266 264 263 259 255 258 259 258 252 239 234 252 266 255 220 228 243 242 238 230 229 247 253
231 246 255 257 260 265 269 272 275 280 276 273 271 269 267 266 266 264 260 256 262 265 265 255 239 232 237 252 262 251 223 227 235 241 244 240 246 257
249 247 250 256 261 264 267 268 270 273 273 274 274 272 270 266 266 265 264 264 262 262 260 258 251 245 245 244 257 261 249 225 222 227 231 235 246 250
257 255 257 260 264 268 271 272 274 273 274 274 274 275 271 265 265 268 268 268 263 259 262 264 262 251 227 235 252 262 265 260 239 237 234 223 217 227
258 258 261 268 269 272 273 271 272 272 272 274 275 277 275 270 266 264 265 265 266 266 267 268 263 247 241 241 250 256 261 264 262 255 252 242 237 244